Weather History for Pensacola, FL

Change the Weather History Date:

Sunday, November 18, 2012

  Actual Average Record
Temperature  
Mean Temperature 59 °F 60 °F  
Max Temperature 71 °F 70 °F 82 °F (1958)
Min Temperature 46 °F 51 °F 27 °F (1951)
Degree Days  
Heating Degree Days 6 6  
Month to date heating degree days 99 80  
Since 1 July heating degree days 128 118  
Cooling Degree Days 0 1  
Month to date cooling degree days 25 34  
Year to date cooling degree days 3029 2584  
Growing Degree Days 8 (Base 50)    
Moisture  
Dew Point 42 °F    
Average Humidity 56    
Maximum Humidity 72    
Minimum Humidity 40    
Precipitation  
Precipitation 0.00 in 0.15 in 2.26 in (1947)
Month to date precipitation 0.34 2.89  
Year to date precipitation 63.65 58.88  
Snow  
Snow 0.00 in 0.00 in 0.00 in (2002)
Month to date snowfall 0.0 0.0  
Since 1 July snowfall 0.0 0.0  
Snow Depth 0.00 in    
Sea Level Pressure  
Sea Level Pressure 30.27 in    
Wind  
Wind Speed 6 mph (NNE)    
Max Wind Speed 10 mph    
Max Gust Speed 17 mph    
Visibility 10 miles    
Events      
T = Trace of Precipitation, MM = Missing Value Source: NWS Daily Summary

Daily Weather History Graph

Daily Weather History Graph

Search for Another Location

Airport:

Trip Planner

Search our weather history database for the weather conditions in past years. The results will help you decide how hot, cold, wet, or windy it might be!

Date:

Astronomy

Nov. 18, 2012 Rise Set
Actual Time 6:17 AM CST 4:50 PM CST
Civil Twilight 5:51 AM CST 5:15 PM CST
Nautical Twilight 5:22 AM CST 5:45 PM CST
Astronomical Twilight 4:54 AM CST 6:13 PM CST
Moon 10:48 AM CST (11/18) 10:03 PM CST (11/18)
Length of Visible Light 11h 23m
Length of Day
10h 32m
Waxing Crescent, 30% of the Moon is Illuminated
Nov 18
Waxing Crescent
Nov 20
First Quarter
Nov 28
Full
Dec 6
Last Quarter
Dec 13
New

Hourly Weather History & Observations

Time (CST) Temp. Dew Point Humidity Pressure Visibility Wind Dir Wind Speed Gust Speed Precip Events Conditions
12:53 AM 53.1 °F 37.0 °F 55% 30.29 in 10.0 mi Variable 6.9 mph 17.3 mph N/A   Clear
1:53 AM 50.0 °F 37.9 °F 63% 30.27 in 10.0 mi NNE 5.8 mph - N/A   Clear
2:53 AM 48.0 °F 37.9 °F 68% 30.27 in 10.0 mi NNE 4.6 mph - N/A   Clear
3:53 AM 48.0 °F 37.9 °F 68% 30.28 in 10.0 mi NNE 5.8 mph - N/A   Partly Cloudy
4:53 AM 46.9 °F 37.0 °F 68% 30.28 in 10.0 mi NNE 5.8 mph - N/A   Clear
5:53 AM 46.9 °F 37.0 °F 68% 30.29 in 10.0 mi NNE 8.1 mph - N/A   Clear
6:53 AM 48.9 °F 37.0 °F 64% 30.30 in 10.0 mi NNE 6.9 mph - N/A   Clear
7:53 AM 51.1 °F 37.9 °F 61% 30.31 in 10.0 mi NNE 8.1 mph - N/A   Partly Cloudy
8:53 AM 55.0 °F 41.0 °F 59% 30.31 in 10.0 mi NE 8.1 mph - N/A   Clear
9:53 AM 59.0 °F 42.1 °F 53% 30.32 in 10.0 mi Variable 5.8 mph - N/A   Clear
10:53 AM 62.1 °F 43.0 °F 50% 30.31 in 10.0 mi North 5.8 mph - N/A   Clear
11:53 AM 66.0 °F 43.0 °F 43% 30.27 in 10.0 mi NNE 6.9 mph - N/A   Clear
12:53 PM 68.0 °F 44.1 °F 42% 30.25 in 10.0 mi NNE 6.9 mph - N/A   Clear
1:53 PM 70.0 °F 44.1 °F 39% 30.23 in 10.0 mi Variable 6.9 mph - N/A   Clear
2:53 PM 70.0 °F 44.1 °F 39% 30.23 in 10.0 mi NE 10.4 mph - N/A   Clear
3:53 PM 69.1 °F 45.0 °F 42% 30.23 in 10.0 mi NNE 6.9 mph - N/A   Clear
4:53 PM 63.0 °F 46.9 °F 56% 30.24 in 10.0 mi North 3.5 mph - N/A   Clear
5:53 PM 60.1 °F 46.9 °F 62% 30.26 in 10.0 mi NNE 4.6 mph - N/A   Clear
6:53 PM 60.1 °F 48.0 °F 64% 30.27 in 10.0 mi North 4.6 mph - N/A   Clear
7:53 PM 57.9 °F 46.9 °F 67% 30.28 in 10.0 mi North 4.6 mph - N/A   Clear
8:53 PM 55.9 °F 46.0 °F 69% 30.28 in 10.0 mi North 6.9 mph - N/A   Clear
9:53 PM 55.9 °F 45.0 °F 67% 30.28 in 10.0 mi North 5.8 mph - N/A   Clear
10:53 PM 55.9 °F 44.1 °F 64% 30.28 in 10.0 mi North 6.9 mph - N/A   Clear
11:53 PM 54.0 °F 43.0 °F 66% 30.27 in 10.0 mi North 4.6 mph - N/A   Clear